Location: Asbacherhof
(48.8543°N, 10.7903°E)
Time: 22:26:28
(UTC+00:00)

Cosmos 2221 Rocket - Pass Details

Date: 26 May 2022
Orbit: 621 x 647 km, 82.5° (Epoch: 29 June)

Event Time Altitude Azimuth Distance (km) Brightness Sun altitude
Exits shadow 00:06:49 32° 240° (WSW) 1,073 4.4 -19.1°
Maximum altitude 00:08:16 43° 285° (WNW) 880 4.3 -19.0°
Drops below altitude 10° 00:12:30 10° 358° (N) 2,002 7.3 -18.8°
Sets 00:14:50 0° 5° (N) 2,913 8.6 -18.7°
